,,Stat6,,Stat2,,Stat8,,Stat9,,Stat10,,Wind1,,Wind1,
time,status,PA1M_AVG,status,PR1M_SUM,status,RH1M_AVG,status,SR1M_AVG,status,TA1M_AVG,status,W1dAve1m,status,W1sAve1m,
2004-11-10, 00:00:00,VALID,918.204,VALID,0,VALID,100,VALID,0,VALID,19.3114,VALID,101,VALID,0.74891,
2004-11-10, 00:01:00,VALID,918.197,VALID,0,VALID,100,VALID,-0.0169808,VALID,19.2921,VALID,111,VALID,0.928597,
2004-11-10, 00:02:00,VALID,918.162,VALID,0,VALID,100,VALID,-0.0169808,VALID,19.2762,VALID,111,VALID,0.847301,
2004-11-10, 00:03:00,VALID,918.152,VALID,0,VALID,100,VALID,0,VALID,19.2595,VALID,117,VALID,0.727072,
2004-11-10, 00:04:00,VALID,918.137,VALID,0,VALID,100,VALID,0,VALID,19.2402,VALID,111,VALID,0.886719,
2004-11-10, 00:05:00,VALID,918.122,VALID,0,VALID,100,VALID,0,VALID,19.2508,VALID,120,VALID,0.9,
2004-11-10, 00:06:00,VALID,918.11,VALID,0,VALID,100,VALID,0,VALID,19.2272,VALID,104,VALID,0.760938,
2004-11-10, 00:07:00,VALID,918.084,VALID,0,VALID,100,VALID,-0.0509425,VALID,19.2084,VALID,113,VALID,0.805959,
2004-11-10, 00:08:00,VALID,918.048,VALID,0,VALID,100,VALID,0,VALID,19.1982,VALID,106,VALID,0.707775,
2004-11-10, 00:09:00,VALID,918.009,VALID,0,VALID,100,VALID,0,VALID,19.1952,VALID,102,VALID,0.599382,
2004-11-10, 00:10:00,VALID,917.986,VALID,0,VALID,100,VALID,0,VALID,19.2088,VALID,130,VALID,1.07395,
2004-11-10, 00:11:00,VALID,917.959,VALID,0,VALID,100,VALID,0,VALID,19.2051,VALID,127,VALID,0.965511,
2004-11-10, 00:12:00,VALID,917.961,VALID,0,VALID,100,VALID,-0.0169808,VALID,19.2051,VALID,120,VALID,0.750401,
2004-11-10, 00:13:00,VALID,917.964,VALID,0,VALID,100,VALID,-0.0169808,VALID,19.1984,VALID,101,VALID,0.855655,
2004-11-10, 00:14:00,VALID,917.96,VALID,0,VALID,100,VALID,0,VALID,19.2019,VALID,103,VALID,0.790334,
2004-11-10, 00:15:00,VALID,917.955,VALID,0,VALID,100,VALID,-0.0169808,VALID,19.1987,VALID,86,VALID,0.988186,
2004-11-10, 00:16:00,VALID,917.947,VALID,0,VALID,100,VALID,0,VALID,19.2051,VALID,101,VALID,0.584339,
2004-11-10, 00:17:00,VALID,917.927,VALID,0,VALID,100,VALID,0,VALID,19.2051,VALID,69,VALID,0.582741,
2004-11-10, 00:18:00,VALID,917.931,VALID,0,VALID,100,VALID,-0.0169808,VALID,19.1922,VALID,103,VALID,0.820858,
2004-11-10, 00:19:00,VALID,917.926,VALID,0,VALID,100,VALID,0,VALID,19.2021,VALID,107,VALID,1.07743,
2004-11-10, 00:20:00,VALID,917.905,VALID,0,VALID,100,VALID,0,VALID,19.2213,VALID,96,VALID,0.887173,
2004-11-10, 00:21:00,VALID,917.892,VALID,0,VALID,100,VALID,0,VALID,19.2245,VALID,93,VALID,0.964208,
2004-11-10, 00:22:00,VALID,917.881,VALID,0,VALID,100,VALID,0,VALID,19.2305,VALID,100,VALID,0.79516,
2004-11-10, 00:23:00,VALID,917.861,VALID,0,VALID,100,VALID,0,VALID,19.2441,VALID,103,VALID,0.684956,
2004-11-10, 00:24:00,VALID,917.84,VALID,0,VALID,100,VALID,0,VALID,19.257,VALID,83,VALID,0.660937,
2004-11-10, 00:25:00,VALID,917.843,VALID,0,VALID,100,VALID,-0.0339617,VALID,19.2531,VALID,107,VALID,0.572409,
2004-11-10, 00:26:00,VALID,917.812,VALID,0,VALID,100,VALID,-0.0169808,VALID,19.2667,VALID,124,VALID,0.785773,
2004-11-10, 00:27:00,VALID,917.807,VALID,0,VALID,100,VALID,0,VALID,19.2829,VALID,104,VALID,0.958147,
2004-11-10, 00:28:00,VALID,917.773,VALID,0,VALID,100,VALID,0.0339617,VALID,19.2824,VALID,101,VALID,0.96317,
2004-11-10, 00:29:00,VALID,917.761,VALID,0,VALID,100,VALID,-0.0169808,VALID,19.3152,VALID,106,VALID,0.700893,
2004-11-10, 00:30:00,VALID,917.732,VALID,0,VALID,99.9657,VALID,0,VALID,19.3373,VALID,102,VALID,0.519003,
2004-11-10, 00:31:00,VALID,917.712,VALID,0,VALID,99.8744,VALID,-0.0169808,VALID,19.3604,VALID,108,VALID,0.916969,
2004-11-10, 00:32:00,VALID,917.683,VALID,0,VALID,99.7866,VALID,-0.0339617,VALID,19.3728,VALID,117,VALID,1.0684,
2004-11-10, 00:33:00,VALID,917.669,VALID,0,VALID,99.6506,VALID,0,VALID,19.3929,VALID,139,VALID,0.610119,
2004-11-10, 00:34:00,VALID,917.651,VALID,0,VALID,99.5997,VALID,0,VALID,19.3922,VALID,137,VALID,0.816306,
2004-11-10, 00:35:00,VALID,917.65,VALID,0,VALID,99.5387,VALID,0,VALID,19.4058,VALID,134,VALID,0.490141,
2004-11-10, 00:36:00,VALID,917.623,VALID,0,VALID,99.4942,VALID,0,VALID,19.3927,VALID,135,VALID,0.512463,
2004-11-10, 00:37:00,VALID,917.605,VALID,0,VALID,99.4891,VALID,0,VALID,19.3795,VALID,132,VALID,0.518169,
2004-11-10, 00:38:00,VALID,917.574,VALID,0,VALID,99.5056,VALID,0,VALID,19.3668,VALID,141,VALID,0.591463,
2004-11-10, 00:39:00,VALID,917.56,VALID,0,VALID,99.5158,VALID,-0.0169808,VALID,19.3405,VALID,143,VALID,0.742374,
2004-11-10, 00:40:00,VALID,917.537,VALID,0,VALID,99.5018,VALID,0,VALID,19.3246,VALID,133,VALID,0.386265,
2004-11-10, 00:41:00,VALID,917.514,VALID,0,VALID,99.5158,VALID,0,VALID,19.3025,VALID,142,VALID,0.616044,
2004-11-10, 00:42:00,VALID,917.482,VALID,0,VALID,99.5565,VALID,0.0169808,VALID,19.2729,VALID,149,VALID,0.638445,
2004-11-10, 00:43:00,VALID,917.46,VALID,0,VALID,99.6506,VALID,-0.0169808,VALID,19.2506,VALID,161,VALID,0.695486,
2004-11-10, 00:44:00,VALID,917.431,VALID,0,VALID,99.7091,VALID,-0.0169808,VALID,19.2451,VALID,141,VALID,0.472202,
2004-11-10, 00:45:00,VALID,917.413,VALID,0,VALID,99.8566,VALID,0,VALID,19.2384,VALID,147,VALID,0.689808,
2004-11-10, 00:46:00,VALID,917.394,VALID,0,VALID,99.91,VALID,0.0169808,VALID,19.224,VALID,176,VALID,0.447731,
2004-11-10, 00:47:00,VALID,917.386,VALID,0,VALID,99.8947,VALID,0,VALID,19.2406,VALID,163,VALID,0.975497,
2004-11-10, 00:48:00,VALID,917.39,VALID,0,VALID,99.9896,VALID,0,VALID,19.2441,VALID,134,VALID,0.508557,
2004-11-10, 00:49:00,VALID,917.394,VALID,0,VALID,99.9138,VALID,0.0169808,VALID,19.2533,VALID,152,VALID,0.736861,
2004-11-10, 00:50:00,VALID,917.396,VALID,0,VALID,99.9227,VALID,0,VALID,19.2436,VALID,151,VALID,0.530134,
2004-11-10, 00:51:00,VALID,917.413,VALID,0,VALID,99.882,VALID,0,VALID,19.2536,VALID,139,VALID,0.638338,
2004-11-10, 00:52:00,VALID,917.418,VALID,0,VALID,99.8095,VALID,0.0169808,VALID,19.2473,VALID,143,VALID,0.854651,
2004-11-10, 00:53:00,VALID,917.433,VALID,0,VALID,99.8121,VALID,0,VALID,19.2538,VALID,118,VALID,0.293241,
2004-11-10, 00:54:00,VALID,917.464,VALID,0,VALID,99.7345,VALID,0,VALID,19.2377,VALID,118,VALID,0.225929,
2004-11-10, 00:55:00,VALID,917.481,VALID,0,VALID,99.7396,VALID,0,VALID,19.2146,VALID,117,VALID,0.264672,
2004-11-10, 00:56:00,VALID,917.487,VALID,0,VALID,99.6951,VALID,0.0169808,VALID,19.2084,VALID,59,VALID,0.529251,
2004-11-10, 00:57:00,VALID,917.492,VALID,0,VALID,99.7129,VALID,0,VALID,19.1957,VALID,56,VALID,0.595567,
2004-11-10, 00:58:00,VALID,917.498,VALID,0,VALID,99.868,VALID,0.0169808,VALID,19.1982,VALID,56,VALID,0.541606,
2004-11-10, 00:59:00,VALID,917.515,VALID,0,VALID,99.9354,VALID,0,VALID,19.2213,VALID,69,VALID,0.655035,
2004-11-10, 01:00:00,VALID,917.508,VALID,0,VALID,99.9227,VALID,0,VALID,19.2215,VALID,97,VALID,0.859375,
2004-11-10, 01:01:00,VALID,917.492,VALID,0,VALID,99.9715,VALID,0,VALID,19.2307,VALID,113,VALID,0.903343,
2004-11-10, 01:02:00,VALID,917.442,VALID,0,VALID,99.9049,VALID,0,VALID,19.2476,VALID,121,VALID,0.690358,
2004-11-10, 01:03:00,VALID,917.418,VALID,0,VALID,99.8947,VALID,0,VALID,19.267,VALID,154,VALID,0.808681,
2004-11-10, 01:04:00,VALID,917.392,VALID,0,VALID,99.8896,VALID,0,VALID,19.2958,VALID,147,VALID,0.883721,
2004-11-10, 01:05:00,VALID,917.371,VALID,0,VALID,99.8057,VALID,0,VALID,19.2886,VALID,161,VALID,0.913672,
2004-11-10, 01:06:00,VALID,917.351,VALID,0,VALID,99.7408,VALID,0,VALID,19.2983,VALID,162,VALID,1.17653,
2004-11-10, 01:07:00,VALID,917.35,VALID,0,VALID,99.7167,VALID,0,VALID,19.3085,VALID,143,VALID,0.85119,
2004-11-10, 01:08:00,VALID,917.348,VALID,0,VALID,99.6925,VALID,0.0169808,VALID,19.3087,VALID,129,VALID,0.662348,
2004-11-10, 01:09:00,VALID,917.34,VALID,0,VALID,99.6137,VALID,0.0169808,VALID,19.3018,VALID,128,VALID,1.03945,
2004-11-10, 01:10:00,VALID,917.325,VALID,0,VALID,99.7612,VALID,-0.0339617,VALID,19.3154,VALID,119,VALID,1.0463,
2004-11-10, 01:11:00,VALID,917.323,VALID,0,VALID,99.8693,VALID,-0.0339617,VALID,19.3445,VALID,131,VALID,1.51094,
2004-11-10, 01:12:00,VALID,917.302,VALID,0,VALID,99.7866,VALID,0,VALID,19.3929,VALID,135,VALID,1.66216,
2004-11-10, 01:13:00,VALID,917.29,VALID,0,VALID,99.6188,VALID,0.0169808,VALID,19.4282,VALID,127,VALID,1.4801,
2004-11-10, 01:14:00,VALID,917.277,VALID,0,VALID,99.4751,VALID,-0.0169808,VALID,19.4409,VALID,140,VALID,1.49902,
2004-11-10, 01:15:00,VALID,917.265,VALID,0,VALID,99.3428,VALID,0,VALID,19.454,VALID,131,VALID,1.49182,
2004-11-10, 01:16:00,VALID,917.241,VALID,0,VALID,99.208,VALID,0,VALID,19.454,VALID,146,VALID,1.41063,
2004-11-10, 01:17:00,VALID,917.224,VALID,0,VALID,99.1165,VALID,0,VALID,19.4314,VALID,148,VALID,1.48027,
2004-11-10, 01:18:00,VALID,917.218,VALID,0,VALID,99.0974,VALID,0.0169808,VALID,19.4016,VALID,137,VALID,1.31729,
2004-11-10, 01:19:00,VALID,917.2,VALID,0,VALID,99.1368,VALID,0,VALID,19.3959,VALID,142,VALID,1.29667,
2004-11-10, 01:20:00,VALID,917.181,VALID,0,VALID,99.1686,VALID,0.0169808,VALID,19.3693,VALID,144,VALID,1.43598,
2004-11-10, 01:21:00,VALID,917.168,VALID,0,VALID,99.1635,VALID,0,VALID,19.376,VALID,138,VALID,1.51004,
2004-11-10, 01:22:00,VALID,917.151,VALID,0,VALID,99.1534,VALID,0.0169808,VALID,19.3827,VALID,139,VALID,1.47545,
2004-11-10, 01:23:00,VALID,917.127,VALID,0,VALID,99.1216,VALID,0.0169808,VALID,19.3857,VALID,149,VALID,1.58594,
2004-11-10, 01:24:00,VALID,917.123,VALID,0,VALID,99.0364,VALID,0,VALID,19.412,VALID,146,VALID,1.59819,
2004-11-10, 01:25:00,VALID,917.118,VALID,0,VALID,99.0872,VALID,0,VALID,19.4083,VALID,138,VALID,1.97319,
2004-11-10, 01:26:00,VALID,917.133,VALID,0,VALID,99.1559,VALID,0,VALID,19.4694,VALID,132,VALID,1.8291,
2004-11-10, 01:27:00,VALID,917.141,VALID,0,VALID,98.8406,VALID,0.0169808,VALID,19.5119,VALID,127,VALID,1.82626,
2004-11-10, 01:28:00,VALID,917.146,VALID,0,VALID,98.7236,VALID,0.0339617,VALID,19.5407,VALID,125,VALID,1.49964,
2004-11-10, 01:29:00,VALID,917.13,VALID,0,VALID,98.4832,VALID,-0.0169808,VALID,19.573,VALID,121,VALID,1.42318,
2004-11-10, 01:30:00,VALID,917.128,VALID,0,VALID,98.4387,VALID,0,VALID,19.583,VALID,107,VALID,1.49982,
2004-11-10, 01:31:00,VALID,917.107,VALID,0,VALID,98.4692,VALID,0,VALID,19.5733,VALID,112,VALID,1.55195,
2004-11-10, 01:32:00,VALID,917.08,VALID,0,VALID,98.3891,VALID,0.0169808,VALID,19.5859,VALID,119,VALID,1.69361,
2004-11-10, 01:33:00,VALID,917.057,VALID,0,VALID,98.2938,VALID,-0.0169808,VALID,19.6051,VALID,121,VALID,1.47972,
2004-11-10, 01:34:00,VALID,917.065,VALID,0,VALID,98.1806,VALID,0,VALID,19.6379,VALID,107,VALID,1.42522,
2004-11-10, 01:35:00,VALID,917.065,VALID,0,VALID,98.0789,VALID,0,VALID,19.6476,VALID,90,VALID,0.732143,
2004-11-10, 01:36:00,VALID,917.067,VALID,0,VALID,98.1679,VALID,0,VALID,19.6312,VALID,102,VALID,0.949219,
2004-11-10, 01:37:00,VALID,917.089,VALID,0,VALID,98.2696,VALID,0,VALID,19.6406,VALID,111,VALID,1.63374,
2004-11-10, 01:38:00,VALID,917.07,VALID,0,VALID,98.2378,VALID,-0.0169808,VALID,19.6662,VALID,110,VALID,1.26711,
2004-11-10, 01:39:00,VALID,917.065,VALID,0,VALID,98.159,VALID,-0.0169808,VALID,19.7025,VALID,116,VALID,1.1424,
2004-11-10, 01:40:00,VALID,917.052,VALID,0,VALID,98.1437,VALID,-0.0169808,VALID,19.7186,VALID,118,VALID,1.71035,
2004-11-10, 01:41:00,VALID,917.065,VALID,0,VALID,98.0814,VALID,-0.0169808,VALID,19.7479,VALID,99,VALID,1.01895,
2004-11-10, 01:42:00,VALID,917.054,VALID,0,VALID,97.9453,VALID,0.0169808,VALID,19.7539,VALID,87,VALID,0.779154,
2004-11-10, 01:43:00,VALID,917.021,VALID,0,VALID,98.0051,VALID,0,VALID,19.7541,VALID,108,VALID,1.01598,
2004-11-10, 01:44:00,VALID,917.019,VALID,0,VALID,98.0344,VALID,-0.0169808,VALID,19.7482,VALID,74,VALID,1.15473,
2004-11-10, 01:45:00,VALID,917.016,VALID,0,VALID,98.1742,VALID,0,VALID,19.7345,VALID,109,VALID,1.61634,
2004-11-10, 01:46:00,VALID,917.001,VALID,0,VALID,98.2137,VALID,0.0169808,VALID,19.7412,VALID,105,VALID,1.47954,
2004-11-10, 01:47:00,VALID,916.995,VALID,0,VALID,98.2086,VALID,-0.0169808,VALID,19.7479,VALID,114,VALID,1.51205,
2004-11-10, 01:48:00,VALID,916.98,VALID,0,VALID,98.2505,VALID,0,VALID,19.7608,VALID,120,VALID,1.73038,
2004-11-10, 01:49:00,VALID,916.964,VALID,0,VALID,98.2798,VALID,0.0169808,VALID,19.7671,VALID,111,VALID,1.45294,
2004-11-10, 01:50:00,VALID,916.939,VALID,0,VALID,98.3408,VALID,0,VALID,19.777,VALID,115,VALID,1.88192,
2004-11-10, 01:51:00,VALID,916.951,VALID,0,VALID,98.3281,VALID,0,VALID,19.7897,VALID,112,VALID,2.05748,
2004-11-10, 01:52:00,VALID,916.932,VALID,0,VALID,98.2098,VALID,0,VALID,19.8056,VALID,112,VALID,1.54869,
2004-11-10, 01:53:00,VALID,916.934,VALID,0,VALID,98.22,VALID,0,VALID,19.8083,VALID,126,VALID,2.06141,
2004-11-10, 01:54:00,VALID,916.926,VALID,0,VALID,98.2098,VALID,0.0169808,VALID,19.8217,VALID,123,VALID,2.05004,
2004-11-10, 01:55:00,VALID,916.933,VALID,0,VALID,98.1602,VALID,0.0169808,VALID,19.8314,VALID,132,VALID,2.02248,
2004-11-10, 01:56:00,VALID,916.915,VALID,0,VALID,98.1374,VALID,0.0169808,VALID,19.8247,VALID,121,VALID,1.74279,
2004-11-10, 01:57:00,VALID,916.911,VALID,0,VALID,98.1081,VALID,0.0169808,VALID,19.8145,VALID,132,VALID,1.64364,
2004-11-10, 01:58:00,VALID,916.899,VALID,0,VALID,98.0585,VALID,0.0169808,VALID,19.8217,VALID,130,VALID,1.75484,
2004-11-10, 01:59:00,VALID,916.871,VALID,0,VALID,98.089,VALID,0,VALID,19.8217,VALID,119,VALID,1.62165,
2004-11-10, 02:00:00,VALID,916.862,VALID,0,VALID,98.0852,VALID,0.0169808,VALID,19.8153,VALID,127,VALID,1.46894,
2004-11-10, 02:01:00,VALID,916.861,VALID,0,VALID,98.0979,VALID,0,VALID,19.8217,VALID,137,VALID,1.67042,
2004-11-10, 02:02:00,VALID,916.85,VALID,0,VALID,98.1017,VALID,0.0169808,VALID,19.8252,VALID,134,VALID,1.64787,
2004-11-10, 02:03:00,VALID,916.839,VALID,0,VALID,98.1145,VALID,0.0169808,VALID,19.8277,VALID,130,VALID,1.73722,
2004-11-10, 02:04:00,VALID,916.843,VALID,0,VALID,98.1043,VALID,0,VALID,19.8282,VALID,121,VALID,1.58798,
2004-11-10, 02:05:00,VALID,916.826,VALID,0,VALID,98.145,VALID,0.0339617,VALID,19.8341,VALID,128,VALID,1.74014,
2004-11-10, 02:06:00,VALID,916.815,VALID,0,VALID,98.1666,VALID,0,VALID,19.8346,VALID,123,VALID,1.56785,
2004-11-10, 02:07:00,VALID,916.799,VALID,0,VALID,98.1234,VALID,0,VALID,19.8572,VALID,108,VALID,0.993712,
2004-11-10, 02:08:00,VALID,916.797,VALID,0,VALID,97.9771,VALID,0.0169808,VALID,19.8672,VALID,127,VALID,1.54821,
2004-11-10, 02:09:00,VALID,916.795,VALID,0,VALID,97.8067,VALID,0,VALID,19.8928,VALID,127,VALID,1.12351,
2004-11-10, 02:10:00,VALID,916.799,VALID,0,VALID,97.6338,VALID,0.0169808,VALID,19.9151,VALID,113,VALID,1.30543,
2004-11-10, 02:11:00,VALID,916.796,VALID,0,VALID,97.4825,VALID,-0.0169808,VALID,19.9382,VALID,126,VALID,0.80069,
2004-11-10, 02:12:00,VALID,916.79,VALID,0,VALID,97.3744,VALID,0,VALID,19.941,VALID,152,VALID,1.00799,
2004-11-10, 02:13:00,VALID,916.814,VALID,0,VALID,97.3197,VALID,-0.0169808,VALID,19.9407,VALID,161,VALID,1.35229,
2004-11-10, 02:14:00,VALID,916.809,VALID,0,VALID,97.2358,VALID,0,VALID,19.9377,VALID,194,VALID,0.761719,
2004-11-10, 02:15:00,VALID,916.807,VALID,0,VALID,97.2434,VALID,0,VALID,19.8992,VALID,195,VALID,0.766555,
2004-11-10, 02:16:00,VALID,916.806,VALID,0,VALID,97.3159,VALID,-0.0679233,VALID,19.8481,VALID,225,VALID,0.7859,
2004-11-10, 02:17:00,VALID,916.814,VALID,0,VALID,97.6808,VALID,-0.101885,VALID,19.778,VALID,259,VALID,0.696403,
2004-11-10, 02:18:00,VALID,916.823,VALID,0,VALID,98.1081,VALID,-0.101885,VALID,19.7134,VALID,264,VALID,0.305903,
2004-11-10, 02:19:01,VALID,916.824,VALID,0,VALID,98.4133,VALID,-0.0849042,VALID,19.6389,VALID,261,VALID,0.67152,
2004-11-10, 02:20:00,VALID,916.815,VALID,0,VALID,98.707,VALID,-0.0679233,VALID,19.5609,VALID,267,VALID,0.434126,
2004-11-10, 02:21:00,VALID,916.82,VALID,0,VALID,99.0071,VALID,-0.101885,VALID,19.5261,VALID,266,VALID,0.0811298,
2004-11-10, 02:22:00,VALID,916.808,VALID,0,VALID,99.2805,VALID,-0.0849042,VALID,19.4903,VALID,266,VALID,0.0102896,
2004-11-10, 02:23:00,VALID,916.816,VALID,0,VALID,99.4865,VALID,-0.0849042,VALID,19.4602,VALID,266,VALID,0,
2004-11-10, 02:24:00,VALID,916.828,VALID,0,VALID,99.559,VALID,-0.0679233,VALID,19.4448,VALID,266,VALID,0,
2004-11-10, 02:25:00,VALID,916.829,VALID,0,VALID,99.6328,VALID,-0.101885,VALID,19.4058,VALID,266,VALID,0,
2004-11-10, 02:26:00,VALID,916.835,VALID,0,VALID,99.7447,VALID,-0.101885,VALID,19.3805,VALID,266,VALID,0.244665,
2004-11-10, 02:27:00,VALID,916.834,VALID,0,VALID,99.9023,VALID,-0.0849042,VALID,19.3641,VALID,266,VALID,0.0850074,
2004-11-10, 02:28:00,VALID,916.835,VALID,0,VALID,99.9977,VALID,-0.101885,VALID,19.3611,VALID,266,VALID,0.0654297,
2004-11-10, 02:29:01,VALID,916.836,VALID,0,VALID,100,VALID,-0.0849042,VALID,19.3512,VALID,266,VALID,0.124199,
2004-11-10, 02:30:01,VALID,916.836,VALID,0,VALID,100,VALID,-0.101885,VALID,19.345,VALID,191,VALID,0.493389,
2004-11-10, 02:31:00,VALID,916.833,VALID,0,VALID,100,VALID,-0.0169808,VALID,19.3472,VALID,176,VALID,0.394431,
2004-11-10, 02:32:00,VALID,916.856,VALID,0,VALID,100,VALID,-0.0169808,VALID,19.3564,VALID,172,VALID,0.325945,
2004-11-10, 02:33:01,VALID,916.86,VALID,0,VALID,100,VALID,0,VALID,19.3497,VALID,172,VALID,0.0078125,
2004-11-10, 02:34:01,VALID,916.864,VALID,0,VALID,100,VALID,0.0169808,VALID,19.3395,VALID,172,VALID,0,
2004-11-10, 02:35:00,VALID,916.865,VALID,0,VALID,100,VALID,0.0169808,VALID,19.3502,VALID,172,VALID,0,
2004-11-10, 02:36:00,VALID,916.861,VALID,0,VALID,100,VALID,0.0169808,VALID,19.3403,VALID,172,VALID,0,
2004-11-10, 02:37:00,VALID,916.872,VALID,0,VALID,100,VALID,0,VALID,19.3234,VALID,172,VALID,0,
2004-11-10, 02:38:00,VALID,916.868,VALID,0,VALID,100,VALID,0,VALID,19.3276,VALID,172,VALID,0,
2004-11-10, 02:39:01,VALID,916.863,VALID,0,VALID,100,VALID,0.0169808,VALID,19.3276,VALID,172,VALID,0,
2004-11-10, 02:40:00,VALID,916.859,VALID,0,VALID,100,VALID,0.0509425,VALID,19.3082,VALID,148,VALID,0.298328,
2004-11-10, 02:41:00,VALID,916.847,VALID,0,VALID,100,VALID,0,VALID,19.2951,VALID,132,VALID,0.599382,
2004-11-10, 02:42:00,VALID,916.851,VALID,0,VALID,100,VALID,0,VALID,19.2985,VALID,90,VALID,0.680069,
2004-11-10, 02:43:00,VALID,916.846,VALID,0,VALID,100,VALID,0.0339617,VALID,19.2821,VALID,138,VALID,0.724653,
2004-11-10, 02:44:00,VALID,916.836,VALID,0,VALID,100,VALID,0.0339617,VALID,19.2687,VALID,142,VALID,1.0846,
2004-11-10, 02:45:00,VALID,916.819,VALID,0,VALID,100,VALID,0.0339617,VALID,19.2953,VALID,136,VALID,1.22008,
2004-11-10, 02:46:00,VALID,916.809,VALID,0,VALID,100,VALID,0.0339617,VALID,19.2955,VALID,142,VALID,1.58213,
2004-11-10, 02:47:00,VALID,916.785,VALID,0,VALID,100,VALID,0.0509425,VALID,19.2921,VALID,178,VALID,1.09284,
2004-11-10, 02:48:00,VALID,916.785,VALID,0,VALID,100,VALID,0.0169808,VALID,19.2923,VALID,151,VALID,0.939808,
2004-11-10, 02:49:01,VALID,916.784,VALID,0,VALID,100,VALID,0.0509425,VALID,19.2856,VALID,146,VALID,0.870206,
2004-11-10, 02:50:00,VALID,916.77,VALID,0,VALID,100,VALID,0,VALID,19.2988,VALID,155,VALID,1.37413,
2004-11-10, 02:51:00,VALID,916.78,VALID,0,VALID,100,VALID,0.0679233,VALID,19.2792,VALID,132,VALID,1.19247,
2004-11-10, 02:52:00,VALID,916.798,VALID,0,VALID,100,VALID,0.0169808,VALID,19.2725,VALID,138,VALID,1.28715,
2004-11-10, 02:53:01,VALID,916.8,VALID,0,VALID,100,VALID,0.0509425,VALID,19.2762,VALID,126,VALID,0.324128,
2004-11-10, 02:54:00,VALID,916.82,VALID,0,VALID,100,VALID,0.0339617,VALID,19.2464,VALID,149,VALID,0.959375,
2004-11-10, 02:55:01,VALID,916.831,VALID,0,VALID,100,VALID,0.0849042,VALID,19.2367,VALID,150,VALID,0.910251,
2004-11-10, 02:56:00,VALID,916.85,VALID,0,VALID,100,VALID,0.0339617,VALID,19.224,VALID,162,VALID,0.987909,
2004-11-10, 02:57:00,VALID,916.857,VALID,0,VALID,100,VALID,0.0339617,VALID,19.2076,VALID,147,VALID,0.809956,
2004-11-10, 02:58:00,VALID,916.852,VALID,0,VALID,100,VALID,0.0169808,VALID,19.2049,VALID,160,VALID,1.17696,
2004-11-10, 02:59:00,VALID,916.849,VALID,0,VALID,100,VALID,0.0339617,VALID,19.195,VALID,168,VALID,1.4755,
2004-11-10, 03:00:01,VALID,916.841,VALID,0,VALID,100,VALID,0.0339617,VALID,19.1915,VALID,155,VALID,1.44883,
2004-11-10, 03:01:00,VALID,916.832,VALID,0,VALID,100,VALID,0,VALID,19.189,VALID,155,VALID,0.946841,
2004-11-10, 03:02:00,VALID,916.825,VALID,0,VALID,100,VALID,0.0509425,VALID,19.1661,VALID,159,VALID,0.904861,
2004-11-10, 03:03:00,VALID,916.811,VALID,0,VALID,100,VALID,0.0509425,VALID,19.153,VALID,148,VALID,1.38003,
2004-11-10, 03:04:00,VALID,916.804,VALID,0,VALID,100,VALID,0.0509425,VALID,19.1465,VALID,150,VALID,1.55078,
2004-11-10, 03:05:01,VALID,916.796,VALID,0,VALID,100,VALID,0.0169808,VALID,19.15,VALID,150,VALID,1.41825,
2004-11-10, 03:06:00,VALID,916.8,VALID,0,VALID,100,VALID,0.0339617,VALID,19.1629,VALID,155,VALID,1.59038,
2004-11-10, 03:07:00,VALID,916.803,VALID,0,VALID,100,VALID,0.0169808,VALID,19.1659,VALID,165,VALID,1.4224,
2004-11-10, 03:08:00,VALID,916.799,VALID,0,VALID,100,VALID,0.0679233,VALID,19.1627,VALID,149,VALID,0.599927,
2004-11-10, 03:09:00,VALID,916.786,VALID,0,VALID,100,VALID,0.0849042,VALID,19.1562,VALID,155,VALID,0.965021,
2004-11-10, 03:10:00,VALID,916.794,VALID,0,VALID,100,VALID,0,VALID,19.1564,VALID,160,VALID,0.75686,
2004-11-10, 03:11:00,VALID,916.802,VALID,0,VALID,100,VALID,0.0339617,VALID,19.1438,VALID,136,VALID,0.348704,
2004-11-10, 03:12:00,VALID,916.811,VALID,0,VALID,100,VALID,0,VALID,19.1403,VALID,147,VALID,0.557546,
2004-11-10, 03:13:01,VALID,916.789,VALID,0,VALID,100,VALID,0.0509425,VALID,19.1376,VALID,150,VALID,0.34375,
2004-11-10, 03:14:00,VALID,916.791,VALID,0,VALID,100,VALID,0.0169808,VALID,19.1276,VALID,153,VALID,0.325994,
2004-11-10, 03:15:01,VALID,916.781,VALID,0,VALID,100,VALID,0.0339617,VALID,19.1142,VALID,154,VALID,0.0742188,
2004-11-10, 03:16:00,VALID,916.775,VALID,0,VALID,100,VALID,-0.0849042,VALID,19.1065,VALID,154,VALID,0.258176,
2004-11-10, 03:17:01,VALID,916.761,VALID,0,VALID,100,VALID,-0.0339617,VALID,19.0995,VALID,134,VALID,0.453488,
2004-11-10, 03:18:00,VALID,916.751,VALID,0,VALID,100,VALID,-0.0679233,VALID,19.1164,VALID,131,VALID,0.590799,
2004-11-10, 03:19:00,VALID,916.733,VALID,0,VALID,100,VALID,-0.101885,VALID,19.1032,VALID,144,VALID,0.507102,
2004-11-10, 03:20:00,VALID,916.727,VALID,0,VALID,100,VALID,-0.0679233,VALID,19.1194,VALID,144,VALID,0.693714,
2004-11-10, 03:21:00,VALID,916.717,VALID,0,VALID,100,VALID,-0.0339617,VALID,19.1224,VALID,136,VALID,0.658975,
2004-11-10, 03:22:01,VALID,916.713,VALID,0,VALID,100,VALID,-0.0849042,VALID,19.1258,VALID,127,VALID,0.578711,
2004-11-10, 03:23:00,VALID,916.711,VALID,0,VALID,100,VALID,-0.0679233,VALID,19.1462,VALID,66,VALID,0.740104,
2004-11-10, 03:24:00,VALID,916.703,VALID,0,VALID,100,VALID,-0.101885,VALID,19.139,VALID,89,VALID,0.817406,
2004-11-10, 03:25:00,VALID,916.706,VALID,0,VALID,100,VALID,-0.0849042,VALID,19.1388,VALID,87,VALID,0.397135,
2004-11-10, 03:26:00,VALID,916.713,VALID,0,VALID,100,VALID,-0.0679233,VALID,19.1484,VALID,121,VALID,0.478468,
2004-11-10, 03:27:00,VALID,916.711,VALID,0,VALID,100,VALID,-0.101885,VALID,19.1484,VALID,107,VALID,0.944792,
2004-11-10, 03:28:00,VALID,916.707,VALID,0,VALID,100,VALID,-0.0849042,VALID,19.1745,VALID,122,VALID,0.912202,
2004-11-10, 03:29:01,VALID,916.697,VALID,0,VALID,100,VALID,-0.101885,VALID,19.1867,VALID,128,VALID,0.955256,
2004-11-10, 03:30:01,VALID,916.685,VALID,0,VALID,100,VALID,-0.0849042,VALID,19.2163,VALID,139,VALID,1.34358,
2004-11-10, 03:31:01,VALID,916.693,VALID,0,VALID,100,VALID,-0.0169808,VALID,19.2441,VALID,141,VALID,1.09157,
2004-11-10, 03:32:01,VALID,916.692,VALID,0,VALID,100,VALID,0,VALID,19.2834,VALID,134,VALID,1.00618,
2004-11-10, 03:33:00,VALID,916.676,VALID,0,VALID,100,VALID,0,VALID,19.2859,VALID,133,VALID,0.831364,
2004-11-10, 03:34:00,VALID,916.68,VALID,0,VALID,100,VALID,0.0339617,VALID,19.3052,VALID,147,VALID,1.35082,
2004-11-10, 03:35:00,VALID,916.679,VALID,0,VALID,100,VALID,0.0169808,VALID,19.3249,VALID,128,VALID,1.06908,
2004-11-10, 03:36:00,VALID,916.689,VALID,0,VALID,100,VALID,0.0169808,VALID,19.3475,VALID,135,VALID,1.25039,
2004-11-10, 03:37:00,VALID,916.678,VALID,0,VALID,100,VALID,0.0169808,VALID,19.3668,VALID,140,VALID,1.1713,
2004-11-10, 03:38:01,VALID,916.684,VALID,0,VALID,99.9341,VALID,0,VALID,19.3765,VALID,120,VALID,1.13104,
2004-11-10, 03:39:00,VALID,916.668,VALID,0,VALID,99.8337,VALID,0.0169808,VALID,19.3832,VALID,124,VALID,0.84811,